Location: Burzi?i
(45.0869°N, 16.0577°E)
Time: 02:35:40
(UTC+00:00)

Cosmos 292 Rocket - Pass Details

Date: 29 October 2020
Orbit: 673 x 695 km, 74.0° (Epoch: 01 December)

Event Time Altitude Azimuth Distance (km) Brightness Sun altitude
Rises 16:11:29 0° 195° (SSW) 3,024 7.5 -4.9°
Reaches altitude 10° 16:13:46 10° 194° (SSW) 2,117 6.7 -5.3°
Maximum altitude 16:18:31 77° 109° (ESE) 709 3.8 -6.1°
Drops below altitude 10° 16:23:21 10° 24° (NNE) 2,148 6.0 -6.9°
Sets 16:25:41 0° 23° (NNE) 3,072 6.8 -7.3°
